TimeCDT,TemperatureF,Dew PointF,Humidity,Sea Level PressureIn,VisibilityMPH,Wind Direction,Wind SpeedMPH,Gust SpeedMPH,PrecipitationIn,Events,Conditions,WindDirDegrees,DateUTC
12:15 AM,55.4,51.8,88,30.14,10.0,Calm,Calm,-,N/A,,Clear,0,2013-05-12 05:15:00
12:35 AM,57.2,51.8,82,30.14,10.0,Calm,Calm,-,N/A,,Clear,0,2013-05-12 05:35:00
12:55 AM,55.4,51.8,88,30.14,10.0,Calm,Calm,-,N/A,,Clear,0,2013-05-12 05:55:00
1:15 AM,55.4,51.8,88,30.14,10.0,Calm,Calm,-,N/A,,Clear,0,2013-05-12 06:15:00
1:35 AM,55.4,51.8,88,30.14,10.0,North,4.6,-,N/A,,Clear,360,2013-05-12 06:35:00
1:55 AM,59.0,50.0,72,30.13,10.0,North,3.5,-,N/A,,Clear,10,2013-05-12 06:55:00
2:15 AM,60.8,48.2,63,30.13,10.0,North,8.1,-,N/A,,Clear,350,2013-05-12 07:15:00
2:35 AM,60.8,50.0,68,30.14,10.0,North,6.9,-,N/A,,Clear,360,2013-05-12 07:35:00
2:55 AM,60.8,51.8,72,30.14,10.0,North,6.9,-,N/A,,Clear,10,2013-05-12 07:55:00
3:15 AM,60.8,50.0,68,30.14,10.0,NNE,6.9,-,N/A,,Clear,20,2013-05-12 08:15:00
3:35 AM,60.8,50.0,68,30.14,10.0,North,4.6,-,N/A,,Clear,10,2013-05-12 08:35:00
3:55 AM,60.8,50.0,68,30.15,10.0,NNE,6.9,-,N/A,,Clear,20,2013-05-12 08:55:00
4:35 AM,60.8,48.2,63,30.16,10.0,NNE,8.1,-,N/A,,Clear,20,2013-05-12 09:35:00
4:55 AM,59.0,46.4,63,30.16,10.0,NNE,8.1,-,N/A,,Clear,20,2013-05-12 09:55:00
5:15 AM,59.0,46.4,63,30.17,10.0,NNE,6.9,-,N/A,,Clear,30,2013-05-12 10:15:00
5:35 AM,59.0,46.4,63,30.18,10.0,NNE,6.9,-,N/A,,Clear,20,2013-05-12 10:35:00
5:55 AM,57.2,46.4,67,30.18,10.0,NNE,6.9,-,N/A,,Clear,30,2013-05-12 10:55:00
6:15 AM,57.2,44.6,63,30.18,10.0,NNE,6.9,-,N/A,,Clear,20,2013-05-12 11:15:00
6:35 AM,57.2,44.6,63,30.19,10.0,NNE,6.9,-,N/A,,Clear,20,2013-05-12 11:35:00
6:55 AM,57.2,42.8,59,30.19,10.0,NNE,9.2,-,N/A,,Clear,30,2013-05-12 11:55:00
7:15 AM,57.2,42.8,59,30.20,10.0,North,8.1,-,N/A,,Clear,10,2013-05-12 12:15:00
7:35 AM,59.0,42.8,55,30.21,10.0,NNE,8.1,-,N/A,,Clear,30,2013-05-12 12:35:00
7:55 AM,59.0,42.8,55,30.22,10.0,NE,8.1,-,N/A,,Clear,40,2013-05-12 12:55:00
8:15 AM,59.0,42.8,55,30.23,10.0,NE,9.2,-,N/A,,Clear,50,2013-05-12 13:15:00
8:35 AM,60.8,41.0,48,30.24,10.0,NE,5.8,-,N/A,,Clear,50,2013-05-12 13:35:00
8:55 AM,62.6,41.0,45,30.24,10.0,NE,9.2,18.4,N/A,,Clear,50,2013-05-12 13:55:00
9:15 AM,62.6,41.0,45,30.25,10.0,ENE,6.9,17.3,N/A,,Clear,60,2013-05-12 14:15:00
9:35 AM,64.4,41.0,42,30.24,10.0,East,12.7,17.3,N/A,,Clear,80,2013-05-12 14:35:00
9:55 AM,64.4,41.0,42,30.25,10.0,NE,9.2,17.3,N/A,,Clear,50,2013-05-12 14:55:00
10:15 AM,66.2,42.8,43,30.25,10.0,East,8.1,-,N/A,,Clear,90,2013-05-12 15:15:00
10:35 AM,68.0,41.0,37,30.25,10.0,East,9.2,-,N/A,,Clear,90,2013-05-12 15:35:00
10:55 AM,68.0,41.0,37,30.25,10.0,East,6.9,-,N/A,,Clear,90,2013-05-12 15:55:00
11:15 AM,68.0,41.0,37,30.26,10.0,East,6.9,-,N/A,,Clear,90,2013-05-12 16:15:00
11:35 AM,68.0,42.8,40,30.26,10.0,East,6.9,-,N/A,,Clear,90,2013-05-12 16:35:00
11:55 AM,69.8,42.8,38,30.25,10.0,ENE,5.8,-,N/A,,Clear,60,2013-05-12 16:55:00
12:15 PM,69.8,42.8,38,30.24,10.0,Calm,Calm,-,N/A,,Clear,0,2013-05-12 17:15:00
12:35 PM,69.8,44.6,40,30.24,10.0,East,3.5,-,N/A,,Clear,80,2013-05-12 17:35:00
12:55 PM,69.8,42.8,38,30.24,10.0,NNE,4.6,-,N/A,,Clear,20,2013-05-12 17:55:00
1:15 PM,71.6,41.0,33,30.24,10.0,ESE,3.5,-,N/A,,Clear,110,2013-05-12 18:15:00
1:35 PM,69.8,41.0,35,30.23,10.0,Calm,Calm,-,N/A,,Clear,0,2013-05-12 18:35:00
1:55 PM,69.8,42.8,38,30.22,10.0,ENE,4.6,-,N/A,,Clear,60,2013-05-12 18:55:00
2:15 PM,71.6,41.0,33,30.21,10.0,NNE,3.5,-,N/A,,Clear,30,2013-05-12 19:15:00
2:35 PM,71.6,41.0,33,30.21,10.0,Calm,Calm,-,N/A,,Clear,0,2013-05-12 19:35:00
2:55 PM,71.6,42.8,35,30.20,10.0,NE,6.9,-,N/A,,Clear,50,2013-05-12 19:55:00
3:15 PM,71.6,41.0,33,30.20,10.0,Calm,Calm,-,N/A,,Clear,0,2013-05-12 20:15:00
3:35 PM,71.6,42.8,35,30.20,10.0,SE,5.8,-,N/A,,Clear,140,2013-05-12 20:35:00
3:55 PM,71.6,41.0,33,30.20,10.0,Calm,Calm,-,N/A,,Clear,0,2013-05-12 20:55:00
4:15 PM,73.4,42.8,33,30.19,10.0,NE,3.5,-,N/A,,Clear,40,2013-05-12 21:15:00
4:35 PM,73.4,39.2,29,30.17,10.0,NE,6.9,-,N/A,,Clear,50,2013-05-12 21:35:00
4:55 PM,73.4,41.0,31,30.17,10.0,East,4.6,-,N/A,,Clear,90,2013-05-12 21:55:00
5:15 PM,73.4,37.4,27,30.17,10.0,NE,3.5,-,N/A,,Clear,50,2013-05-12 22:15:00
5:35 PM,73.4,37.4,27,30.17,10.0,NE,3.5,-,N/A,,Clear,40,2013-05-12 22:35:00
5:55 PM,73.4,39.2,29,30.16,10.0,Calm,Calm,-,N/A,,Clear,0,2013-05-12 22:55:00
6:15 PM,73.4,37.4,27,30.15,10.0,Calm,Calm,-,N/A,,Clear,0,2013-05-12 23:15:00
6:35 PM,73.4,37.4,27,30.15,10.0,NE,3.5,-,N/A,,Clear,50,2013-05-12 23:35:00
6:55 PM,71.6,41.0,33,30.15,10.0,Calm,Calm,-,N/A,,Clear,0,2013-05-12 23:55:00
7:15 PM,71.6,42.8,35,30.14,10.0,Calm,Calm,-,N/A,,Clear,0,2013-05-13 00:15:00
7:35 PM,69.8,44.6,40,30.14,10.0,Calm,Calm,-,N/A,,Clear,0,2013-05-13 00:35:00
7:55 PM,64.4,46.4,52,30.15,10.0,Calm,Calm,-,N/A,,Clear,0,2013-05-13 00:55:00
8:15 PM,62.6,44.6,52,30.15,10.0,Calm,Calm,-,N/A,,Clear,0,2013-05-13 01:15:00
8:35 PM,60.8,50.0,68,30.15,10.0,Calm,Calm,-,N/A,,Clear,0,2013-05-13 01:35:00
8:55 PM,59.0,46.4,63,30.16,10.0,Calm,Calm,-,N/A,,Clear,0,2013-05-13 01:55:00
9:15 PM,59.0,50.0,72,30.17,10.0,Calm,Calm,-,N/A,,Clear,0,2013-05-13 02:15:00
9:35 PM,55.4,48.2,77,30.18,10.0,Calm,Calm,-,N/A,,Clear,0,2013-05-13 02:35:00
9:55 PM,55.4,50.0,82,30.18,10.0,Calm,Calm,-,N/A,,Clear,0,2013-05-13 02:55:00
10:15 PM,53.6,48.2,82,30.19,10.0,Calm,Calm,-,N/A,,Clear,0,2013-05-13 03:15:00
10:35 PM,53.6,48.2,82,30.19,10.0,Calm,Calm,-,N/A,,Clear,0,2013-05-13 03:35:00
10:55 PM,53.6,48.2,82,30.20,10.0,Calm,Calm,-,N/A,,Clear,0,2013-05-13 03:55:00
11:15 PM,51.8,46.4,82,30.20,10.0,Calm,Calm,-,N/A,,Clear,0,2013-05-13 04:15:00
11:35 PM,51.8,46.4,82,30.20,10.0,Calm,Calm,-,N/A,,Clear,0,2013-05-13 04:35:00
11:55 PM,51.8,46.4,82,30.20,10.0,Calm,Calm,-,N/A,,Clear,0,2013-05-13 04:55:00